| time (UTC) | temp F | wind direction | speed MPH | gust MPH | rain 1hr in | rain 24hr in | rain mn in | humidity % | barometer mb |
| 20260504015506 | 52 | 235 | 7.0 | 9.0 | 0.00 | 0.00 | 0.00 | 76 | 1008.1 |
| 20260504015008 | 52 | 232 | 7.0 | 9.0 | 0.00 | 0.00 | 0.00 | 77 | 1008.1 |
| 20260504014507 | 52 | 224 | 7.0 | 9.0 | 0.00 | 0.00 | 0.00 | 78 | 1008.1 |
| 20260504014007 | 52 | 219 | 5.0 | 7.0 | 0.00 | 0.00 | 0.00 | 78 | 1008.1 |
| 20260504013507 | 52 | 208 | 5.0 | 7.0 | 0.00 | 0.00 | 0.00 | 78 | 1008.1 |
| 20260504012007 | 52 | 212 | 7.0 | 9.0 | 0.00 | 0.00 | 0.00 | 79 | 1008.1 |
| 20260504011507 | 52 | 218 | 7.0 | 9.0 | 0.00 | 0.00 | 0.00 | 79 | 1008.1 |
| 20260504011007 | 52 | 221 | 7.0 | 14.0 | 0.00 | 0.00 | 0.00 | 79 | 1008.1 |
| 20260504010507 | 52 | 206 | 9.0 | 14.0 | 0.00 | 0.00 | 0.00 | 80 | 1008.1 |
| 20260504010006 | 50 | 209 | 7.0 | 14.0 | 0.00 | 0.00 | 0.00 | 81 | 1008.1 |
| 20260504005506 | 50 | 205 | 6.0 | 7.0 | 0.00 | 0.00 | 0.00 | 81 | 1008.1 |
| 20260504005008 | 50 | 180 | 5.0 | 7.0 | 0.00 | 0.00 | 0.00 | 80 | 1008.1 |
| 20260504004506 | 50 | 193 | 5.0 | 5.0 | 0.00 | 0.00 | 0.00 | 79 | 1008.1 |
| 20260504004007 | 50 | 204 | 5.0 | 7.0 | 0.00 | 0.00 | 0.00 | 79 | 1008.1 |
| 20260504003507 | 50 | 206 | 5.0 | 7.0 | 0.00 | 0.00 | 0.00 | 78 | 1008.1 |
| 20260504003007 | 50 | 218 | 7.0 | 7.0 | 0.00 | 0.00 | 0.00 | 78 | 1008.1 |
| 20260504002506 | 50 | 228 | 7.0 | 7.0 | 0.00 | 0.00 | 0.00 | 77 | 1008.1 |
| 20260504001507 | 51 | 245 | 7.0 | 9.0 | 0.00 | 0.00 | 0.00 | 74 | 1008.1 |
| 20260504001007 | 51 | 263 | 8.0 | 9.0 | 0.00 | 0.00 | 0.00 | 73 | 1008.1 |
| 20260504000507 | 51 | 278 | 9.0 | 12.0 | 0.00 | 0.00 | 0.00 | 72 | 1008.1 |
| 20260504000006 | 52 | 275 | 9.0 | 14.0 | 0.00 | 0.00 | 0.00 | 71 | 1008.1 |
| 20260503235507 | 52 | 275 | 12.0 | 16.0 | 0.00 | 0.00 | 0.00 | 69 | 1008.1 |
| 20260503235008 | 52 | 272 | 12.0 | 16.0 | 0.00 | 0.00 | 0.00 | 68 | 1008.1 |
| 20260503234506 | 52 | 272 | 12.0 | 16.0 | 0.00 | 0.00 | 0.00 | 68 | 1008.1 |
| 20260503234007 | 52 | 271 | 14.0 | 20.0 | 0.00 | 0.00 | 0.00 | 67 | 1008.1 |
| 20260503233507 | 52 | 256 | 17.0 | 20.0 | 0.00 | 0.00 | 0.00 | 65 | 1008.1 |
| 20260503233008 | 53 | 261 | 18.0 | 20.0 | 0.00 | 0.00 | 0.00 | 63 | 1008.1 |
| 20260503232506 | 53 | 258 | 18.0 | 22.0 | 0.00 | 0.00 | 0.00 | 62 | 1008.1 |
| 20260503232007 | 53 | 261 | 18.0 | 22.0 | 0.00 | 0.00 | 0.00 | 60 | 1008.1 |
| 20260503231506 | 54 | 254 | 16.0 | 22.0 | 0.00 | 0.00 | 0.00 | 58 | 1008.1 |
| 20260503230507 | 55 | 256 | 13.0 | 18.0 | 0.00 | 0.00 | 0.00 | 57 | 1008.1 |
| 20260503225506 | 55 | 253 | 16.0 | 18.0 | 0.00 | 0.00 | 0.00 | 56 | 1007.1 |
| 20260503225007 | 55 | 255 | 14.0 | 20.0 | 0.00 | 0.00 | 0.00 | 55 | 1007.1 |
| 20260503224506 | 55 | 249 | 17.0 | 20.0 | 0.00 | 0.00 | 0.00 | 55 | 1007.1 |
| 20260503224007 | 55 | 243 | 18.0 | 20.0 | 0.00 | 0.00 | 0.00 | 55 | 1007.1 |
| 20260503223507 | 55 | 246 | 16.0 | 22.0 | 0.00 | 0.00 | 0.00 | 55 | 1007.1 |
| 20260503223007 | 55 | 246 | 18.0 | 24.0 | 0.00 | 0.00 | 0.00 | 54 | 1007.1 |
| 20260503222507 | 55 | 246 | 20.0 | 24.0 | 0.00 | 0.00 | 0.00 | 53 | 1007.1 |
| 20260503222007 | 55 | 250 | 20.0 | 22.0 | 0.00 | 0.00 | 0.00 | 53 | 1006.6 |
| 20260503221007 | 55 | 248 | 17.0 | 22.0 | 0.00 | 0.00 | 0.00 | 53 | 1007.1 |
| 20260503220507 | 55 | 246 | 14.0 | 22.0 | 0.00 | 0.00 | 0.00 | 53 | 1007.1 |
| 20260503215506 | 55 | 260 | 13.0 | 18.0 | 0.00 | 0.00 | 0.00 | 53 | 1007.1 |
| 20260503215007 | 55 | 256 | 15.0 | 22.0 | 0.00 | 0.00 | 0.00 | 52 | 1007.1 |
| 20260503214506 | 56 | 250 | 18.0 | 24.0 | 0.00 | 0.00 | 0.00 | 52 | 1007.1 |
| 20260503214006 | 56 | 258 | 20.0 | 24.0 | 0.00 | 0.00 | 0.00 | 52 | 1007.1 |
| 20260503213507 | 55 | 229 | 18.0 | 24.0 | 0.00 | 0.00 | 0.00 | 53 | 1006.2 |
| 20260503213007 | 55 | 218 | 17.0 | 24.0 | 0.00 | 0.00 | 0.00 | 53 | 1007.1 |
| 20260503212506 | 55 | 221 | 16.0 | 24.0 | 0.00 | 0.00 | 0.00 | 52 | 1007.1 |
| 20260503212007 | 55 | 289 | 16.0 | 22.0 | 0.00 | 0.00 | 0.00 | 52 | 1007.1 |
| 20260503211007 | 56 | 260 | 14.0 | 20.0 | 0.00 | 0.00 | 0.00 | 52 | 1007.1 |
| 20260503210507 | 56 | 272 | 15.0 | 20.0 | 0.00 | 0.00 | 0.00 | 51 | 1007.1 |
| 20260503210006 | 56 | 253 | 14.0 | 20.0 | 0.00 | 0.00 | 0.00 | 52 | 1007.1 |
| 20260503205506 | 56 | 253 | 16.0 | 20.0 | 0.00 | 0.00 | 0.00 | 51 | 1007.1 |
| 20260503205007 | 56 | 241 | 12.0 | 18.0 | 0.00 | 0.00 | 0.00 | 51 | 1007.1 |
| 20260503204506 | 57 | 278 | 12.0 | 18.0 | 0.00 | 0.00 | 0.00 | 51 | 1007.1 |
| 20260503204007 | 57 | 283 | 14.0 | 20.0 | 0.00 | 0.00 | 0.00 | 51 | 1007.1 |
| 20260503203506 | 57 | 280 | 16.0 | 20.0 | 0.00 | 0.00 | 0.00 | 50 | 1007.1 |
| 20260503203007 | 57 | 243 | 16.0 | 20.0 | 0.00 | 0.00 | 0.00 | 50 | 1007.1 |
| 20260503202507 | 57 | 249 | 14.0 | 20.0 | 0.00 | 0.00 | 0.00 | 50 | 1007.1 |
| 20260503202007 | 57 | 279 | 14.0 | 18.0 | 0.00 | 0.00 | 0.00 | 50 | 1007.1 |
| 20260503201506 | 56 | 247 | 14.0 | 22.0 | 0.00 | 0.00 | 0.00 | 50 | 1007.1 |
| 20260503201007 | 56 | 276 | 19.0 | 26.0 | 0.00 | 0.00 | 0.00 | 50 | 1007.1 |
| 20260503200507 | 57 | 264 | 18.0 | 26.0 | 0.00 | 0.00 | 0.00 | 50 | 1007.1 |
| 20260503200006 | 57 | 249 | 17.0 | 20.0 | 0.00 | 0.00 | 0.00 | 50 | 1008.1 |
| 20260503195506 | 57 | 258 | 13.0 | 22.0 | 0.00 | 0.00 | 0.00 | 51 | 1008.1 |
| 20260503195006 | 56 | 241 | 14.0 | 22.0 | 0.00 | 0.00 | 0.00 | 51 | 1008.1 |
| 20260503194007 | 56 | 262 | 16.0 | 20.0 | 0.00 | 0.00 | 0.00 | 52 | 1008.1 |
| 20260503193506 | 56 | 260 | 14.0 | 22.0 | 0.00 | 0.00 | 0.00 | 53 | 1008.1 |
| 20260503193007 | 55 | 253 | 16.0 | 22.0 | 0.00 | 0.00 | 0.00 | 53 | 1008.1 |
| 20260503192506 | 55 | 239 | 14.0 | 22.0 | 0.00 | 0.00 | 0.00 | 55 | 1008.2 |
| 20260503192007 | 55 | 221 | 15.0 | 20.0 | 0.00 | 0.00 | 0.00 | 56 | 1009.1 |
| 20260503191506 | 55 | 255 | 15.0 | 20.0 | 0.00 | 0.00 | 0.00 | 59 | 1009.1 |
| 20260503191006 | 54 | 271 | 11.0 | 20.0 | 0.00 | 0.00 | 0.00 | 63 | 1009.1 |
| 20260503190506 | 48 | 65 | 4.0 | 9.0 | 0.00 | 0.00 | 0.00 | 69 | 1010.0 |
| 20260503190006 | 48 | 89 | 5.0 | 9.0 | 0.00 | 0.00 | 0.00 | 68 | 1009.1 |
| 20260503185506 | 47 | 67 | 5.0 | 9.0 | 0.00 | 0.00 | 0.00 | 69 | 1009.6 |
| 20260503185007 | 46 | 80 | 7.0 | 12.0 | 0.00 | 0.00 | 0.00 | 69 | 1010.1 |
| 20260503184506 | 46 | 67 | 7.0 | 12.0 | 0.00 | 0.00 | 0.00 | 68 | 1010.1 |
| 20260503184007 | 46 | 83 | 7.0 | 7.0 | 0.00 | 0.00 | 0.00 | 68 | 1010.1 |
| 20260503183506 | 46 | 90 | 5.0 | 7.0 | 0.00 | 0.00 | 0.00 | 68 | 1010.1 |
| 20260503183007 | 47 | 94 | 5.0 | 7.0 | 0.00 | 0.00 | 0.00 | 68 | 1010.1 |
| 20260503182506 | 47 | 52 | 5.0 | 7.0 | 0.00 | 0.00 | 0.00 | 67 | 1010.1 |
| 20260503182007 | 48 | 41 | 5.0 | 5.0 | 0.00 | 0.00 | 0.00 | 67 | 1010.1 |
| 20260503181506 | 48 | 29 | 5.0 | 7.0 | 0.00 | 0.00 | 0.00 | 67 | 1010.1 |
| 20260503181006 | 48 | 34 | 5.0 | 7.0 | 0.00 | 0.00 | 0.00 | 67 | 1010.1 |
| 20260503180506 | 48 | 18 | 5.0 | 9.0 | 0.00 | 0.00 | 0.00 | 67 | 1010.1 |
| 20260503180005 | 47 | 16 | 7.0 | 9.0 | 0.00 | 0.00 | 0.00 | 67 | 1010.1 |
| 20260503175506 | 47 | 21 | 5.0 | 7.0 | 0.00 | 0.00 | 0.00 | 67 | 1010.1 |
| 20260503174506 | 48 | 33 | 5.0 | 7.0 | 0.00 | 0.00 | 0.00 | 66 | 1010.1 |
| 20260503174007 | 48 | 35 | 5.0 | 7.0 | 0.00 | 0.00 | 0.00 | 66 | 1010.1 |
| 20260503173507 | 48 | 23 | 5.0 | 9.0 | 0.00 | 0.00 | 0.00 | 66 | 1010.1 |
| 20260503172506 | 48 | 353 | 5.0 | 9.0 | 0.00 | 0.00 | 0.00 | 66 | 1010.1 |
| 20260503172006 | 48 | 13 | 5.0 | 7.0 | 0.00 | 0.00 | 0.00 | 67 | 1010.1 |
| 20260503171506 | 48 | 24 | 5.0 | 9.0 | 0.00 | 0.00 | 0.00 | 66 | 1010.7 |
| 20260503171007 | 48 | 14 | 6.0 | 9.0 | 0.00 | 0.00 | 0.00 | 66 | 1011.0 |
| 20260503170506 | 48 | 22 | 7.0 | 7.0 | 0.00 | 0.00 | 0.00 | 66 | 1011.1 |
| 20260503151007 | 47 | 56 | 7.0 | 7.0 | 0.00 | 0.00 | 0.00 | 66 | 1012.1 |
| 20260503150506 | 48 | 51 | 5.0 | 9.0 | 0.00 | 0.00 | 0.00 | 65 | 1012.1 |
| 20260503131006 | 46 | 256 | 9.0 | 14.0 | 0.00 | 0.00 | 0.00 | 64 | 1013.1 |
| 20260503130506 | 46 | 257 | 9.0 | 14.0 | 0.00 | 0.00 | 0.00 | 64 | 1013.1 |
| 20260503110508 | 39 | 259 | 9.0 | 12.0 | 0.00 | 0.00 | 0.00 | 79 | 1013.7 |
| 20260503090508 | 39 | 257 | 9.0 | 14.0 | 0.00 | 0.00 | 0.00 | 78 | 1013.1 |
| 20260503081507 | 40 | 247 | 9.0 | 9.0 | 0.00 | 0.00 | 0.00 | 78 | 1013.1 |
| 20260503080508 | 40 | 249 | 7.0 | 9.0 | 0.00 | 0.00 | 0.00 | 78 | 1013.1 |
| 20260503072506 | 41 | 252 | 9.0 | 9.0 | 0.00 | 0.00 | 0.00 | 77 | 1013.1 |
| 20260503072007 | 41 | 259 | 9.0 | 9.0 | 0.00 | 0.00 | 0.00 | 77 | 1013.1 |
| 20260503071507 | 41 | 258 | 9.0 | 9.0 | 0.00 | 0.00 | 0.00 | 77 | 1013.1 |
| 20260503054507 | 42 | 256 | 7.0 | 9.0 | 0.00 | 0.00 | 0.00 | 72 | 1013.1 |
| 20260503054008 | 43 | 258 | 7.0 | 9.0 | 0.00 | 0.00 | 0.00 | 72 | 1013.1 |
| 20260503053507 | 43 | 261 | 9.0 | 9.0 | 0.00 | 0.00 | 0.00 | 71 | 1013.1 |
| 20260503053008 | 43 | 251 | 9.0 | 9.0 | 0.00 | 0.00 | 0.00 | 71 | 1013.1 |
| 20260503052506 | 43 | 254 | 9.0 | 9.0 | 0.00 | 0.00 | 0.00 | 70 | 1013.1 |
| 20260503052008 | 43 | 253 | 9.0 | 9.0 | 0.00 | 0.00 | 0.00 | 70 | 1013.1 |
| 20260503051508 | 43 | 264 | 9.0 | 9.0 | 0.00 | 0.00 | 0.00 | 69 | 1013.1 |
| 20260503051007 | 43 | 258 | 9.0 | 9.0 | 0.00 | 0.00 | 0.00 | 69 | 1013.1 |
| 20260503050507 | 44 | 262 | 7.0 | 9.0 | 0.00 | 0.00 | 0.00 | 69 | 1013.1 |
| 20260503050007 | 44 | 255 | 7.0 | 9.0 | 0.00 | 0.00 | 0.00 | 69 | 1013.2 |
| 20260503045507 | 44 | 242 | 7.0 | 9.0 | 0.00 | 0.00 | 0.00 | 68 | 1013.2 |
| 20260503045007 | 44 | 253 | 7.0 | 9.0 | 0.00 | 0.00 | 0.00 | 68 | 1013.6 |
| 20260503044506 | 44 | 258 | 7.0 | 9.0 | 0.00 | 0.00 | 0.00 | 68 | 1014.0 |
| 20260503044007 | 44 | 257 | 7.0 | 9.0 | 0.00 | 0.00 | 0.00 | 68 | 1013.7 |
| 20260503043508 | 44 | 278 | 7.0 | 9.0 | 0.00 | 0.00 | 0.00 | 68 | 1014.1 |
| 20260503043008 | 44 | 271 | 7.0 | 9.0 | 0.00 | 0.00 | 0.00 | 68 | 1014.1 |
| 20260503042507 | 44 | 275 | 7.0 | 9.0 | 0.00 | 0.00 | 0.00 | 67 | 1014.1 |
| 20260503042008 | 44 | 273 | 7.0 | 9.0 | 0.00 | 0.00 | 0.00 | 68 | 1014.1 |
| 20260503041506 | 44 | 273 | 7.0 | 9.0 | 0.00 | 0.00 | 0.00 | 67 | 1014.1 |
| 20260503040508 | 44 | 272 | 7.0 | 7.0 | 0.00 | 0.00 | 0.00 | 67 | 1014.1 |
| 20260503040007 | 44 | 278 | 7.0 | 9.0 | 0.00 | 0.00 | 0.00 | 67 | 1014.1 |
| 20260503035507 | 45 | 271 | 7.0 | 12.0 | 0.00 | 0.00 | 0.00 | 68 | 1014.1 |
| 20260503034007 | 44 | 270 | 7.0 | 9.0 | 0.00 | 0.00 | 0.00 | 68 | 1014.1 |
| 20260503033507 | 44 | 279 | 7.0 | 9.0 | 0.00 | 0.00 | 0.00 | 68 | 1014.1 |
| 20260503032506 | 45 | 272 | 7.0 | 9.0 | 0.00 | 0.00 | 0.00 | 69 | 1014.1 |
| 20260503032007 | 45 | 271 | 7.0 | 9.0 | 0.00 | 0.00 | 0.00 | 69 | 1014.1 |
| 20260503031507 | 45 | 273 | 7.0 | 9.0 | 0.00 | 0.00 | 0.00 | 69 | 1014.1 |
| 20260503031007 | 45 | 269 | 7.0 | 9.0 | 0.00 | 0.00 | 0.00 | 69 | 1014.1 |
| 20260503030507 | 45 | 266 | 7.0 | 9.0 | 0.00 | 0.00 | 0.00 | 69 | 1014.1 |
| 20260503030007 | 45 | 281 | 7.0 | 9.0 | 0.00 | 0.00 | 0.00 | 70 | 1014.1 |
| 20260503025506 | 45 | 272 | 7.0 | 9.0 | 0.00 | 0.00 | 0.00 | 71 | 1014.1 |
| 20260503025007 | 45 | 277 | 7.0 | 9.0 | 0.00 | 0.00 | 0.00 | 71 | 1014.1 |
| 20260503024507 | 45 | 274 | 7.0 | 9.0 | 0.00 | 0.00 | 0.00 | 71 | 1014.1 |
| 20260503024007 | 45 | 283 | 7.0 | 9.0 | 0.00 | 0.00 | 0.00 | 71 | 1014.1 |
| 20260503023507 | 45 | 267 | 7.0 | 9.0 | 0.00 | 0.00 | 0.00 | 71 | 1014.1 |
| 20260503023007 | 45 | 267 | 7.0 | 9.0 | 0.00 | 0.00 | 0.00 | 71 | 1014.1 |
| 20260503022506 | 45 | 267 | 7.0 | 9.0 | 0.00 | 0.00 | 0.00 | 71 | 1014.1 |
| 20260503022007 | 45 | 265 | 7.0 | 9.0 | 0.00 | 0.00 | 0.00 | 72 | 1014.1 |
| 20260503021507 | 45 | 267 | 7.0 | 9.0 | 0.00 | 0.00 | 0.00 | 72 | 1014.1 |
| 20260503021008 | 45 | 266 | 7.0 | 9.0 | 0.00 | 0.00 | 0.00 | 72 | 1014.1 |
| 20260503020507 | 45 | 270 | 7.0 | 9.0 | 0.00 | 0.00 | 0.00 | 72 | 1014.1 |